Location: Unspecified
(0.0000°N, 0.0000°E)
Time: 05:27:52
(UTC+00:00)

CUTE-I - Visible Passes

Search period start: 09 July 2020 00:00
Search period end: 19 July 2020 00:00
Orbit: 810 x 825 km, 98.7° (Epoch: 08 July)

Date Brightness Start Highest point End Pass type
(mag) Time Alt. Az. Time Alt. Az. Time Alt. Az.
09 Jul ? 04:54:42 10° ENE 04:57:34 15° ESE 05:00:26 10° SE visible
09 Jul ? 19:14:38 10° SW 19:16:31 12° WSW 19:18:24 10° W visible
10 Jul ? 18:51:08 10° SSW 18:55:09 22° WSW 18:59:10 10° NW visible
11 Jul ? 18:28:51 10° S 18:33:46 39° WSW 18:38:41 10° NW visible
12 Jul ? 05:28:11 10° NE 05:33:09 39° ESE 05:38:06 10° S visible
13 Jul ? 05:07:44 10° NE 05:11:46 22° ESE 05:15:47 10° SSE visible
14 Jul ? 04:48:34 10° E 04:50:24 12° ESE 04:52:14 10° ESE visible
14 Jul ? 19:06:27 10° SW 19:09:19 15° WSW 19:12:12 10° WNW visible
15 Jul ? 18:43:34 10° SSW 18:47:57 27° WSW 18:52:21 10° NW visible
16 Jul ? 05:42:05 10° NNE 05:47:20 57° ESE 05:52:36 10° S visible
17 Jul ? 05:21:14 10° NE 05:25:57 32° ESE 05:30:40 10° SSE visible
18 Jul ? 05:01:03 10° ENE 05:04:34 18° ESE 05:08:05 10° SE visible
